QPF
0.06 0.07 0.07 0.06 0.05 0.03 0.04 0.05 0.04 0.02 0.02 0.04 0.08 0.05 0.03 0.02 0.04 0.04 0.03 0.01 0.01 0.01 0.00 0.01 0.01 0.01 0.01 0.01 0.01 0.01 0.02 0.01 0.02 0.02 0.02 0.02 0.04 0.04 0.03 0.02 0.02 0.01 0.01
0.07 0.06 0.05 0.06 0.06 0.04 0.04 0.04 0.04 0.03 0.03 0.03 0.03 0.01 0.01 0.03 0.04 0.03 0.05 0.03 0.02 0.02 0.01 0.01 0.01 0.01 0.01 0.01 0.01 0.02 0.02 0.01 0.01 0.02 0.02 0.02 0.02 0.02 0.03 0.02 0.02 0.01 0.01
0.07 0.06 0.06 0.05 0.05 0.05 0.04 0.03 0.04 0.03 0.03 0.03 0.02 0.02 0.01 0.04 0.07 0.04 0.08 0.09 0.05 0.03 0.02 0.02 0.02 0.02 0.01 0.01 0.02 0.02 0.01 0.01 0.01 0.02 0.01 0.01 0.01 0.01 0.01 0.02 0.02 0.02 0.01
0.05 0.05 0.06 0.06 0.04 0.04 0.04 0.05 0.04 0.04 0.03 0.03 0.03 0.03 0.02 0.03 0.03 0.03 0.06 0.08 0.09 0.08 0.07 0.04 0.04 0.03 0.02 0.02 0.03 0.03 0.03 0.02 0.02 0.03 0.03 0.02 0.02 0.02 0.02 0.02 0.02 0.02 0.01
0.04 0.04 0.05 0.06 0.04 0.04 0.04 0.04 0.05 0.04 0.04 0.03 0.01 0.02 0.02 0.03 0.03 0.04 0.07 0.07 0.05 0.06 0.07 0.05 0.04 0.03 0.03 0.03 0.03 0.03 0.03 0.04 0.04 0.03 0.03 0.03 0.03 0.03 0.03 0.02 0.02 0.02 0.01
0.05 0.05 0.05 0.06 0.05 0.05 0.06 0.05 0.07 0.05 0.04 0.02 0.01 0.03 0.02 0.01 0.02 0.03 0.04 0.04 0.05 0.04 0.05 0.06 0.06 0.03 0.02 0.03 0.03 0.02 0.03 0.03 0.02 0.02 0.04 0.04 0.04 0.03 0.02 0.02 0.02 0.02 0.02
0.06 0.06 0.07 0.07 0.07 0.08 0.07 0.05 0.05 0.04 0.04 0.03 0.03 0.04 0.03 0.02 0.02 0.03 0.03 0.02 0.03 0.03 0.05 0.06 0.05 0.05 0.04 0.02 0.02 0.02 0.03 0.03 0.02 0.02 0.02 0.03 0.04 0.04 0.03 0.03 0.02 0.02 0.02
0.06 0.05 0.08 0.07 0.07 0.09 0.07 0.06 0.06 0.06 0.04 0.03 0.03 0.05 0.07 0.07 0.04 0.03 0.03 0.02 0.02 0.04 0.03 0.03 0.03 0.03 0.04 0.05 0.02 0.01 0.01 0.02 0.02 0.02 0.02 0.02 0.03 0.03 0.03 0.02 0.02 0.02 0.02
0.05 0.06 0.08 0.08 0.08 0.06 0.07 0.07 0.07 0.06 0.05 0.04 0.02 0.04 0.06 0.07 0.06 0.06 0.04 0.03 0.03 0.03 0.03 0.02 0.02 0.02 0.02 0.03 0.03 0.01 0.01 0.01 0.02 0.02 0.02 0.02 0.02 0.02 0.03 0.03 0.02 0.02 0.02
0.06 0.05 0.05 0.08 0.07 0.05 0.05 0.04 0.04 0.05 0.05 0.06 0.04 0.03 0.02 0.03 0.04 0.06 0.05 0.03 0.02 0.02 0.02 0.02 0.02 0.03 0.03 0.03 0.03 0.01 0.01 0.01 0.01 0.02 0.02 0.02 0.02 0.03 0.02 0.03 0.03 0.03 0.02
0.06 0.05 0.05 0.07 0.06 0.04 0.03 0.03 0.03 0.03 0.03 0.04 0.03 0.02 0.02 0.01 0.01 0.03 0.04 0.03 0.02 0.02 0.01 0.01 0.02 0.02 0.02 0.02 0.02 0.01 0.00 0.00 0.00 0.01 0.01 0.01 0.01 0.02 0.02 0.03 0.03 0.03 0.03
0.07 0.06 0.05 0.06 0.05 0.04 0.04 0.03 0.02 0.02 0.03 0.03 0.03 0.02 0.01 0.01 0.01 0.01 0.03 0.03 0.04 0.03 0.01 0.01 0.01 0.01 0.01 0.01 0.01 0.00 0.00 0.00 0.00 0.00 0.01 0.01 0.01 0.01 0.01 0.01 0.01 0.02 0.02
0.05 0.05 0.05 0.05 0.05 0.04 0.03 0.03 0.02 0.02 0.02 0.02 0.01 0.01 0.01 0.01 0.01 0.01 0.01 0.01 0.02 0.01 0.01 0.00 0.00 0.01 0.00 0.01 0.01 0.00 0.00 0.00 0.00 0.00 0.00 0.01 0.01 0.01 0.02 0.02 0.02 0.02 0.02
0.04 0.04 0.05 0.04 0.03 0.03 0.02 0.02 0.03 0.02 0.03 0.02 0.01 0.02 0.01 0.01 0.01 0.01 0.00 0.00 0.01 0.01 0.01 0.00 0.00 0.00 0.00 0.01 0.01 0.00 0.00 0.00 0.00 0.00 0.00 0.00 0.00 0.00 0.00 0.00 0.01 0.01 0.01
0.06 0.05 0.05 0.04 0.03 0.02 0.02 0.02 0.03 0.02 0.02 0.02 0.01 0.01 0.01 0.01 0.00 0.00 0.00 0.00 0.00 0.01 0.01 0.01 0.00 0.00 0.00 0.01 0.00 0.00 0.01 0.00 0.00 0.00 0.00 0.00 0.00 0.00 0.00 0.00 0.00 0.00 0.00
0.07 0.06 0.05 0.04 0.03 0.03 0.02 0.03 0.02 0.02 0.02 0.02 0.02 0.01 0.01 0.00 0.00 0.00 0.00 0.00 0.00 0.00 0.00 0.00 0.00 0.00 0.00 0.00 0.00 0.00 0.00 0.00 0.00 0.00 0.00 0.00 0.00 0.00 0.00 0.00 0.00 0.00 0.00
0.06 0.06 0.05 0.04 0.03 0.03 0.02 0.03 0.03 0.03 0.02 0.02 0.01 0.01 0.00 0.00 0.00 0.00 0.00 0.00 0.00 0.00 0.00 0.00 0.00 0.00 0.00 0.00 0.00 0.00 0.00 0.00 0.00 0.00 0.00 0.00 0.00 0.00 0.00 0.00 0.00 0.00 0.00
0.06 0.05 0.03 0.03 0.02 0.02 0.03 0.02 0.02 0.02 0.01 0.01 0.01 0.01 0.00 0.00 0.00 0.00 0.00 0.00 0.00 0.00 0.00 0.00 0.00 0.00 0.00 0.00 0.00 0.00 0.00 0.00 0.00 0.00 0.00 0.00 0.00 0.00 0.00 0.00 0.00 0.00 0.00
0.06 0.04 0.03 0.03 0.02 0.02 0.02 0.02 0.01 0.01 0.01 0.00 0.00 0.01 0.00 0.00 0.00 0.00 0.00 0.00 0.00 0.00 0.00 0.00 0.00 0.00 0.00 0.00 0.00 0.00 0.00 0.00 0.00 0.00 0.00 0.00 0.00 0.00 0.00 0.00 0.00 0.00 0.00
0.04 0.03 0.02 0.02 0.01 0.01 0.00 0.00 0.00 0.00 0.00 0.00 0.00 0.00 0.00 0.00 0.00 0.00 0.00 0.00 0.00 0.00 0.00 0.00 0.00 0.00 0.00 0.00 0.01 0.00 0.00 0.00 0.00 0.00 0.00 0.00 0.00 0.00 0.00 0.00 0.00 0.00 0.00
0.03 0.03 0.02 0.02 0.02 0.01 0.00 0.01 0.01 0.01 0.01 0.01 0.00 0.00 0.00 0.00 0.00 0.00 0.00 0.00 0.00 0.00 0.00 0.00 0.00 0.01 0.01 0.02 0.01 0.01 0.01 0.01 0.00 0.00 0.00 0.00 0.00 0.00 0.00 0.00 0.00 0.00 0.00
0.03 0.03 0.02 0.01 0.02 0.01 0.01 0.01 0.01 0.01 0.01 0.01 0.01 0.01 0.01 0.00 0.00 0.00 0.00 0.00 0.00 0.00 0.00 0.00 0.00 0.01 0.01 0.02 0.02 0.01 0.01 0.01 0.01 0.00 0.00 0.00 0.00 0.00 0.00 0.00 0.00 0.00 0.00
0.03 0.02 0.03 0.03 0.02 0.02 0.01 0.01 0.01 0.01 0.02 0.02 0.02 0.01 0.01 0.01 0.01 0.01 0.00 0.00 0.00 0.00 0.00 0.00 0.00 0.00 0.01 0.02 0.03 0.02 0.02 0.02 0.01 0.01 0.01 0.00 0.00 0.00 0.00 0.00 0.00 0.00 0.00
0.04 0.03 0.03 0.03 0.02 0.02 0.01 0.01 0.01 0.01 0.01 0.01 0.01 0.01 0.02 0.03 0.02 0.01 0.01 0.01 0.01 0.01 0.01 0.01 0.01 0.01 0.01 0.02 0.02 0.02 0.02 0.02 0.01 0.01 0.02 0.01 0.00 0.00 0.00 0.00 0.00 0.00 0.00
0.04 0.04 0.04 0.04 0.03 0.03 0.02 0.01 0.01 0.01 0.01 0.01 0.01 0.02 0.03 0.03 0.04 0.02 0.02 0.02 0.03 0.03 0.02 0.02 0.01 0.01 0.01 0.01 0.01 0.01 0.01 0.01 0.00 0.00 0.01 0.01 0.01 0.01 0.00 0.00 0.00 0.00 0.00
0.05 0.05 0.05 0.04 0.03 0.03 0.02 0.01 0.02 0.02 0.01 0.01 0.02 0.02 0.03 0.03 0.03 0.03 0.03 0.04 0.04 0.03 0.03 0.03 0.02 0.01 0.01 0.01 0.00 0.00 0.00 0.01 0.01 0.01 0.00 0.01 0.01 0.01 0.01 0.00 0.00 0.00 0.00
MSLP
1014.15 1014.42 1014.64 1014.81 1014.97 1015.13 1015.30 1015.48 1015.64 1015.78 1015.89 1015.96 1016.02 1016.09 1016.21 1016.40 1016.67 1017.03 1017.46 1017.91 1018.34 1018.73 1019.04 1019.28 1019.45 1019.57 1019.67 1019.78 1019.91 1020.06 1020.23 1020.40 1020.57 1020.72 1020.87 1021.02 1021.18 1021.34 1021.52 1021.71 1021.90 1022.08 1022.24
1013.95 1014.26 1014.52 1014.73 1014.91 1015.09 1015.26 1015.44 1015.61 1015.78 1015.92 1016.04 1016.16 1016.28 1016.43 1016.62 1016.86 1017.16 1017.50 1017.85 1018.21 1018.53 1018.83 1019.08 1019.29 1019.47 1019.64 1019.79 1019.95 1020.10 1020.25 1020.39 1020.52 1020.65 1020.78 1020.92 1021.08 1021.26 1021.45 1021.66 1021.86 1022.04 1022.21
1013.74 1014.10 1014.41 1014.66 1014.89 1015.09 1015.28 1015.47 1015.66 1015.84 1016.02 1016.19 1016.35 1016.51 1016.68 1016.86 1017.05 1017.27 1017.51 1017.76 1018.01 1018.27 1018.52 1018.76 1019.00 1019.23 1019.45 1019.65 1019.84 1020.01 1020.15 1020.27 1020.37 1020.47 1020.59 1020.72 1020.88 1021.07 1021.28 1021.50 1021.72 1021.92 1022.10
1013.51 1013.91 1014.28 1014.60 1014.89 1015.14 1015.36 1015.57 1015.77 1015.97 1016.17 1016.36 1016.55 1016.74 1016.91 1017.07 1017.22 1017.36 1017.49 1017.63 1017.78 1017.95 1018.14 1018.35 1018.59 1018.85 1019.11 1019.35 1019.58 1019.76 1019.91 1020.03 1020.12 1020.20 1020.30 1020.42 1020.59 1020.78 1021.00 1021.23 1021.47 1021.69 1021.89
1013.25 1013.69 1014.12 1014.52 1014.88 1015.18 1015.45 1015.69 1015.91 1016.12 1016.33 1016.54 1016.74 1016.94 1017.11 1017.25 1017.35 1017.42 1017.46 1017.49 1017.54 1017.61 1017.73 1017.90 1018.12 1018.38 1018.66 1018.93 1019.19 1019.40 1019.56 1019.68 1019.78 1019.85 1019.95 1020.06 1020.22 1020.41 1020.63 1020.87 1021.11 1021.34 1021.56
1012.96 1013.43 1013.92 1014.39 1014.82 1015.20 1015.52 1015.80 1016.04 1016.26 1016.48 1016.69 1016.90 1017.09 1017.26 1017.38 1017.45 1017.46 1017.42 1017.37 1017.32 1017.30 1017.34 1017.46 1017.64 1017.88 1018.16 1018.46 1018.73 1018.97 1019.16 1019.30 1019.40 1019.48 1019.58 1019.69 1019.83 1020.01 1020.22 1020.46 1020.70 1020.93 1021.16
1012.65 1013.14 1013.67 1014.20 1014.71 1015.15 1015.53 1015.85 1016.13 1016.36 1016.58 1016.80 1017.01 1017.20 1017.36 1017.47 1017.52 1017.50 1017.41 1017.29 1017.17 1017.08 1017.04 1017.09 1017.22 1017.43 1017.70 1018.00 1018.29 1018.55 1018.76 1018.93 1019.05 1019.15 1019.25 1019.35 1019.49 1019.65 1019.84 1020.05 1020.27 1020.49 1020.72
1012.37 1012.85 1013.40 1013.97 1014.53 1015.04 1015.47 1015.84 1016.14 1016.40 1016.63 1016.85 1017.06 1017.26 1017.43 1017.54 1017.59 1017.55 1017.45 1017.29 1017.11 1016.96 1016.86 1016.84 1016.91 1017.09 1017.33 1017.61 1017.91 1018.19 1018.43 1018.63 1018.78 1018.91 1019.01 1019.12 1019.23 1019.37 1019.53 1019.70 1019.89 1020.09 1020.29
1012.13 1012.59 1013.14 1013.72 1014.31 1014.85 1015.34 1015.74 1016.07 1016.35 1016.60 1016.84 1017.07 1017.28 1017.47 1017.60 1017.66 1017.63 1017.52 1017.35 1017.15 1016.95 1016.79 1016.72 1016.74 1016.85 1017.06 1017.32 1017.61 1017.91 1018.18 1018.42 1018.61 1018.76 1018.88 1018.99 1019.09 1019.20 1019.32 1019.45 1019.60 1019.75 1019.92
1011.94 1012.37 1012.89 1013.46 1014.05 1014.62 1015.12 1015.56 1015.92 1016.23 1016.51 1016.77 1017.02 1017.26 1017.47 1017.63 1017.72 1017.72 1017.63 1017.46 1017.24 1017.02 1016.83 1016.70 1016.66 1016.72 1016.88 1017.11 1017.40 1017.70 1018.00 1018.27 1018.49 1018.68 1018.82 1018.93 1019.03 1019.11 1019.20 1019.28 1019.39 1019.49 1019.62
1011.79 1012.18 1012.66 1013.21 1013.78 1014.34 1014.86 1015.32 1015.71 1016.05 1016.36 1016.65 1016.93 1017.20 1017.44 1017.63 1017.76 1017.79 1017.72 1017.57 1017.36 1017.12 1016.89 1016.72 1016.62 1016.63 1016.74 1016.94 1017.20 1017.51 1017.82 1018.11 1018.37 1018.59 1018.76 1018.89 1018.98 1019.05 1019.10 1019.16 1019.22 1019.29 1019.37
1011.65 1012.02 1012.47 1012.97 1013.51 1014.05 1014.57 1015.03 1015.45 1015.82 1016.16 1016.48 1016.79 1017.09 1017.36 1017.59 1017.74 1017.81 1017.77 1017.64 1017.44 1017.20 1016.95 1016.73 1016.59 1016.54 1016.60 1016.75 1016.98 1017.27 1017.58 1017.89 1018.17 1018.42 1018.62 1018.76 1018.86 1018.92 1018.97 1018.99 1019.03 1019.07 1019.12
1011.49 1011.85 1012.27 1012.74 1013.25 1013.77 1014.27 1014.73 1015.16 1015.56 1015.92 1016.27 1016.61 1016.93 1017.23 1017.48 1017.66 1017.76 1017.75 1017.64 1017.45 1017.21 1016.95 1016.71 1016.53 1016.42 1016.42 1016.52 1016.70 1016.95 1017.25 1017.55 1017.85 1018.11 1018.32 1018.48 1018.59 1018.66 1018.71 1018.73 1018.75 1018.78 1018.82
1011.28 1011.66 1012.08 1012.53 1013.01 1013.50 1013.98 1014.45 1014.89 1015.29 1015.68 1016.05 1016.40 1016.74 1017.05 1017.31 1017.51 1017.62 1017.64 1017.55 1017.39 1017.16 1016.90 1016.64 1016.42 1016.27 1016.21 1016.24 1016.37 1016.57 1016.82 1017.10 1017.38 1017.64 1017.85 1018.02 1018.15 1018.23 1018.28 1018.30 1018.33 1018.36 1018.41
1011.03 1011.45 1011.89 1012.34 1012.80 1013.27 1013.74 1014.20 1014.63 1015.04 1015.44 1015.81 1016.17 1016.51 1016.81 1017.08 1017.28 1017.41 1017.45 1017.40 1017.26 1017.05 1016.81 1016.55 1016.31 1016.12 1016.01 1015.97 1016.03 1016.15 1016.34 1016.56 1016.80 1017.03 1017.23 1017.40 1017.52 1017.61 1017.67 1017.71 1017.75 1017.79 1017.85
1010.76 1011.25 1011.71 1012.17 1012.63 1013.09 1013.55 1013.99 1014.42 1014.83 1015.21 1015.58 1015.92 1016.24 1016.53 1016.79 1016.99 1017.13 1017.20 1017.18 1017.09 1016.92 1016.72 1016.47 1016.24 1016.02 1015.86 1015.76 1015.73 1015.78 1015.88 1016.02 1016.19 1016.36 1016.53 1016.66 1016.77 1016.85 1016.91 1016.96 1017.02 1017.08 1017.15
1010.54 1011.08 1011.58 1012.05 1012.52 1012.97 1013.42 1013.85 1014.26 1014.65 1015.01 1015.34 1015.66 1015.95 1016.21 1016.45 1016.65 1016.80 1016.90 1016.93 1016.89 1016.79 1016.63 1016.43 1016.21 1016.00 1015.80 1015.65 1015.54 1015.49 1015.50 1015.55 1015.63 1015.72 1015.82 1015.90 1015.97 1016.03 1016.08 1016.12 1016.17 1016.24 1016.32
1010.40 1010.98 1011.50 1011.99 1012.45 1012.90 1013.33 1013.74 1014.12 1014.48 1014.80 1015.10 1015.38 1015.63 1015.86 1016.07 1016.26 1016.43 1016.55 1016.64 1016.67 1016.64 1016.55 1016.42 1016.24 1016.04 1015.83 1015.64 1015.47 1015.34 1015.25 1015.20 1015.17 1015.18 1015.19 1015.20 1015.21 1015.22 1015.23 1015.25 1015.28 1015.34 1015.42
1010.38 1010.96 1011.48 1011.96 1012.41 1012.84 1013.25 1013.63 1013.98 1014.30 1014.59 1014.84 1015.07 1015.27 1015.46 1015.65 1015.83 1016.00 1016.16 1016.30 1016.40 1016.45 1016.45 1016.39 1016.27 1016.10 1015.90 1015.69 1015.48 1015.28 1015.11 1014.97 1014.85 1014.76 1014.68 1014.62 1014.55 1014.50 1014.45 1014.42 1014.41 1014.43 1014.48
1010.46 1011.00 1011.49 1011.94 1012.37 1012.77 1013.15 1013.49 1013.81 1014.09 1014.33 1014.54 1014.72 1014.87 1015.03 1015.18 1015.35 1015.53 1015.72 1015.90 1016.06 1016.19 1016.27 1016.28 1016.23 1016.11 1015.94 1015.73 1015.51 1015.27 1015.04 1014.83 1014.64 1014.47 1014.31 1014.16 1014.02 1013.89 1013.77 1013.66 1013.59 1013.55 1013.56
1010.60 1011.06 1011.49 1011.89 1012.27 1012.64 1012.98 1013.29 1013.58 1013.82 1014.03 1014.19 1014.33 1014.45 1014.57 1014.69 1014.84 1015.02 1015.22 1015.43 1015.64 1015.83 1015.97 1016.05 1016.06 1015.99 1015.86 1015.68 1015.46 1015.22 1014.97 1014.72 1014.49 1014.26 1014.04 1013.83 1013.61 1013.40 1013.20 1013.01 1012.86 1012.74 1012.67
1010.72 1011.09 1011.44 1011.77 1012.10 1012.42 1012.72 1013.01 1013.27 1013.50 1013.68 1013.82 1013.93 1014.02 1014.11 1014.21 1014.34 1014.50 1014.70 1014.92 1015.15 1015.36 1015.54 1015.66 1015.72 1015.71 1015.62 1015.48 1015.28 1015.06 1014.82 1014.58 1014.33 1014.08 1013.83 1013.56 1013.29 1013.01 1012.73 1012.47 1012.22 1012.02 1011.87
1010.77 1011.03 1011.29 1011.56 1011.83 1012.11 1012.39 1012.66 1012.91 1013.14 1013.32 1013.46 1013.56 1013.64 1013.71 1013.79 1013.90 1014.03 1014.20 1014.41 1014.62 1014.83 1015.02 1015.16 1015.24 1015.26 1015.21 1015.10 1014.95 1014.77 1014.57 1014.35 1014.12 1013.88 1013.61 1013.34 1013.03 1012.70 1012.36 1012.01 1011.68 1011.39 1011.15
1010.67 1010.85 1011.04 1011.25 1011.48 1011.73 1012.01 1012.28 1012.54 1012.78 1012.99 1013.15 1013.27 1013.36 1013.42 1013.49 1013.57 1013.67 1013.80 1013.96 1014.14 1014.31 1014.47 1014.59 1014.67 1014.70 1014.67 1014.60 1014.49 1014.36 1014.20 1014.03 1013.84 1013.63 1013.39 1013.11 1012.80 1012.44 1012.05 1011.64 1011.23 1010.86 1010.53
1010.43 1010.56 1010.71 1010.88 1011.09 1011.34 1011.62 1011.92 1012.22 1012.49 1012.74 1012.94 1013.09 1013.21 1013.29 1013.35 1013.41 1013.47 1013.56 1013.66 1013.77 1013.89 1013.99 1014.08 1014.13 1014.14 1014.12 1014.07 1013.99 1013.90 1013.78 1013.66 1013.53 1013.36 1013.15 1012.89 1012.58 1012.21 1011.79 1011.34 1010.87 1010.42 1010.01
1010.09 1010.21 1010.35 1010.53 1010.74 1011.00 1011.30 1011.64 1011.97 1012.30 1012.60 1012.85 1013.05 1013.20 1013.30 1013.36 1013.41 1013.44 1013.48 1013.52 1013.57 1013.61 1013.66 1013.68 1013.69 1013.67 1013.64 1013.59 1013.53 1013.46 1013.39 1013.31 1013.21 1013.08 1012.91 1012.67 1012.37 1012.00 1011.56 1011.08 1010.57 1010.06 1009.58
Thickness
5757 5756 5754 5753 5752 5751 5750 5749 5749 5749 5749 5749 5749 5750 5750 5750 5746 5741 5736 5734 5732 5731 5729 5728 5726 5725 5724 5723 5721 5720 5719 5717 5716 5716 5715 5714 5713 5712 5710 5709 5708 5708 5707
5756 5754 5753 5752 5751 5750 5749 5748 5747 5747 5747 5747 5748 5748 5748 5747 5745 5741 5736 5733 5732 5730 5729 5727 5726 5724 5723 5722 5721 5719 5718 5717 5716 5715 5714 5713 5712 5711 5710 5708 5707 5706 5705
5755 5753 5752 5750 5750 5749 5748 5746 5746 5745 5745 5746 5746 5746 5746 5745 5743 5740 5737 5734 5731 5729 5728 5727 5725 5724 5723 5722 5720 5719 5718 5716 5715 5714 5713 5712 5711 5710 5709 5708 5706 5705 5704
5753 5752 5751 5749 5748 5747 5746 5745 5745 5744 5743 5744 5743 5744 5744 5743 5742 5740 5737 5735 5732 5730 5728 5727 5725 5724 5723 5722 5721 5719 5718 5716 5715 5714 5713 5711 5710 5709 5708 5707 5706 5705 5704
5751 5751 5750 5749 5748 5747 5746 5745 5743 5742 5740 5741 5742 5742 5743 5742 5741 5740 5738 5736 5734 5732 5730 5727 5725 5724 5722 5722 5721 5719 5718 5717 5715 5714 5712 5711 5710 5709 5708 5706 5705 5704 5703
5750 5749 5749 5748 5747 5746 5744 5743 5742 5741 5740 5740 5742 5741 5741 5742 5741 5740 5739 5737 5735 5733 5731 5728 5725 5723 5722 5722 5720 5719 5718 5717 5715 5714 5712 5711 5710 5709 5707 5706 5705 5704 5703
5749 5748 5748 5747 5746 5745 5743 5742 5741 5739 5739 5740 5737 5734 5737 5741 5741 5740 5739 5738 5736 5734 5732 5729 5727 5725 5722 5721 5720 5719 5718 5716 5715 5714 5712 5711 5710 5708 5707 5706 5705 5704 5702
5748 5747 5746 5745 5745 5743 5742 5742 5741 5738 5739 5740 5735 5730 5726 5729 5735 5740 5739 5737 5736 5734 5732 5730 5728 5726 5724 5722 5719 5718 5717 5716 5714 5713 5712 5710 5709 5708 5707 5706 5704 5703 5702
5746 5747 5746 5745 5744 5743 5741 5741 5741 5738 5736 5739 5739 5733 5725 5721 5726 5733 5736 5737 5735 5734 5733 5732 5730 5727 5725 5722 5720 5718 5716 5715 5714 5712 5711 5710 5709 5707 5706 5705 5704 5703 5702
5745 5745 5745 5744 5744 5744 5742 5741 5742 5741 5738 5735 5738 5738 5736 5733 5726 5723 5730 5734 5735 5733 5733 5732 5730 5728 5725 5723 5720 5718 5716 5715 5713 5712 5711 5709 5708 5707 5706 5704 5704 5703 5702
5745 5745 5744 5744 5743 5743 5743 5742 5741 5740 5740 5738 5738 5737 5737 5736 5735 5727 5722 5727 5731 5733 5733 5733 5731 5729 5726 5723 5720 5718 5716 5714 5712 5711 5709 5708 5707 5706 5705 5704 5703 5702 5701
5744 5744 5744 5743 5743 5743 5742 5742 5741 5740 5740 5740 5739 5739 5737 5734 5732 5731 5726 5725 5726 5730 5734 5733 5732 5730 5727 5725 5722 5719 5716 5714 5712 5710 5709 5707 5706 5705 5704 5703 5702 5701 5700
5742 5743 5745 5743 5742 5742 5742 5742 5740 5740 5740 5739 5739 5739 5740 5740 5739 5736 5731 5728 5727 5729 5731 5732 5733 5731 5729 5726 5722 5719 5716 5714 5712 5710 5709 5707 5706 5704 5703 5702 5701 5700 5699
5744 5744 5744 5742 5742 5742 5742 5740 5740 5739 5740 5738 5739 5738 5738 5740 5740 5738 5734 5729 5724 5724 5727 5729 5732 5731 5729 5726 5722 5719 5716 5714 5712 5710 5708 5707 5705 5704 5702 5701 5700 5698 5698
5745 5743 5743 5742 5742 5741 5741 5739 5738 5738 5738 5737 5737 5737 5736 5738 5739 5739 5738 5734 5726 5718 5719 5726 5728 5730 5728 5725 5722 5718 5716 5714 5712 5710 5708 5706 5705 5703 5702 5700 5698 5697 5696
5744 5742 5741 5741 5740 5740 5739 5738 5737 5737 5736 5736 5736 5735 5735 5736 5737 5737 5736 5735 5732 5725 5720 5725 5727 5729 5726 5724 5720 5717 5715 5713 5711 5710 5708 5706 5705 5703 5701 5699 5698 5696 5695
5742 5741 5740 5739 5738 5738 5737 5736 5736 5736 5735 5734 5735 5734 5733 5733 5733 5733 5733 5732 5730 5727 5720 5722 5726 5726 5723 5720 5717 5715 5714 5712 5711 5710 5708 5706 5704 5702 5700 5699 5697 5695 5693
5741 5740 5739 5738 5737 5736 5736 5735 5734 5735 5734 5733 5733 5732 5731 5731 5730 5729 5728 5728 5726 5725 5720 5716 5718 5719 5718 5718 5716 5713 5712 5712 5711 5711 5708 5706 5704 5702 5699 5697 5695 5694 5692
5739 5738 5737 5736 5735 5735 5734 5734 5734 5734 5733 5732 5732 5730 5729 5728 5726 5725 5724 5724 5723 5722 5719 5715 5713 5716 5716 5715 5713 5711 5710 5709 5709 5709 5708 5705 5703 5700 5698 5696 5694 5692 5690
5737 5736 5735 5735 5734 5734 5734 5733 5733 5732 5732 5732 5731 5730 5728 5727 5724 5722 5721 5719 5718 5716 5714 5711 5709 5710 5710 5712 5709 5705 5703 5705 5705 5705 5704 5702 5700 5698 5696 5694 5692 5690 5688
5737 5735 5734 5733 5733 5733 5733 5732 5731 5730 5729 5729 5729 5728 5727 5725 5724 5721 5719 5716 5714 5711 5708 5706 5704 5704 5704 5703 5701 5701 5698 5698 5699 5699 5698 5697 5696 5694 5692 5690 5688 5686 5684
5736 5734 5733 5732 5731 5733 5733 5732 5730 5729 5727 5725 5724 5724 5723 5722 5719 5717 5715 5712 5709 5705 5703 5700 5698 5697 5697 5697 5696 5693 5690 5688 5686 5691 5688 5688 5688 5687 5686 5685 5685 5683 5680
5734 5733 5732 5731 5730 5731 5730 5729 5727 5726 5725 5723 5721 5720 5720 5721 5718 5714 5711 5708 5704 5702 5698 5695 5692 5690 5690 5690 5687 5684 5682 5679 5677 5680 5678 5677 5679 5678 5679 5679 5677 5675 5673
5734 5732 5731 5731 5729 5729 5727 5725 5723 5722 5721 5720 5719 5717 5715 5715 5715 5711 5707 5704 5701 5698 5695 5692 5690 5688 5687 5684 5681 5677 5674 5673 5674 5674 5671 5666 5669 5669 5671 5670 5668 5666 5664
5734 5732 5731 5730 5728 5726 5724 5721 5719 5717 5715 5715 5715 5715 5713 5710 5708 5705 5701 5698 5695 5694 5692 5690 5688 5685 5681 5678 5674 5669 5665 5662 5661 5663 5664 5659 5659 5659 5660 5659 5658 5657 5655
5733 5731 5729 5729 5727 5725 5721 5718 5715 5714 5711 5710 5710 5709 5708 5705 5702 5698 5694 5691 5687 5686 5684 5683 5679 5677 5674 5671 5667 5662 5658 5653 5651 5651 5653 5649 5648 5646 5645 5648 5647 5645 5643